Location: *
(38.4303°S, 157.0822°W)
Time: 13:10:04
(UTC+00:00)

Cosmos 1455 Rocket - Pass Details

Date: 21 May 2024
Orbit: 602 x 625 km, 82.5° (Epoch: 14 June)

Event Time Altitude Azimuth Distance (km) Brightness Sun altitude
Rises 15:26:37 0° 356° (N) 2,896 6.5 -23.7°
Reaches altitude 10° 15:28:49 10° 356° (N) 2,000 5.7 -23.2°
Maximum altitude 15:33:16 86° 82° (E) 641 3.0 -22.4°
Drops below altitude 10° 15:37:48 10° 172° (S) 2,033 5.7 -21.5°
Sets 15:40:03 0° 172° (S) 2,948 6.5 -21.1°
